User: anonymous   Login
Location: Easthampton
(42.2676°N, 72.6690°W)
Time: 06:23:04
(UTC+00:00)
Language:

BlueWalker 3 - Orbit

View from above orbital plane
View from above orbital plane
View from above satellite
View from above satellite

Ground track
Ground track

The orbit data is extracted from the following two-line orbital elements,

1 53807U 22111AL  23036.92641476  .00003629  00000-0  18450-3 0  9994
2 53807  53.2059 313.1287 0013214  19.2041 340.9451 15.19316371 22481
Epoch (UTC): 05 February 2023 22:14:02
Eccentricity: 0.0013214
inclination: 53.2059°
perigee height: 499 km
apogee height: 517 km
right ascension of ascending node: 313.1287°
argument of perigee: 19.2041°
revolutions per day: 15.19316371
mean anomaly at epoch: 340.9451°
orbit number at epoch: 2248

The dashed part of the orbit path shows where the satellite is in the earth's shadow,  

DLR